Regional Weather Roundup
Issued by NWS

Home | Current Version | Previous Version | Text Only | Print | Product List | Glossary Off
Versions: 1 2 3 4 5 6 7 8 9 10 11 12 13 14 15 16 17 18 19 20 21 22 23 24 25 26 27 28 29 30 31 32 33 34 35 36 37 38 39 40 41 42 43 44 45 46 47 48 49 50

000
ASUS43 KMKX 250321
RWRWI

WISCONSIN REGIONAL WEATHER ROUNDUP
NATIONAL WEATHER SERVICE MILWAUKEE/SULLIVAN WI
1000 PM CDT SUN MAY 24 2015

NOTE: "FAIR" INDICATES FEW OR NO CLOUDS BELOW 12,000 FEET WITH NO
SIGNIFICANT WEATHER AND/OR OBSTRUCTIONS TO VISIBILITY.

WIZ001-002-006>008-014>016-023>028-250400-
NORTHWEST WISCONSIN

CITY           SKY/WX    TMP DP  RH WIND       PRES   REMARKS
SUPERIOR ARPT  DRIZZLE   59  57  91 NE3       29.92F
ASHLAND        LGT RAIN  59  58  96 CALM      29.95F FOG
HAYWARD        LGT RAIN  58  56  93 E6        29.93S
SIREN          LGT RAIN  58  57  97 E6        29.89F
CUMBERLAND     DRIZZLE   55  54  94 E8        29.89F
RICE LAKE      LGT RAIN  58  55  92 E9        29.90F
CHETEK         DRIZZLE   58  57  97 E10       29.89F
LADYSMITH      RAIN      57  56  97 E7        29.93F
EAU CLAIRE     CLOUDY    58  55  90 E10       29.86F
MENOMONIE      CLOUDY    58  57  97 E9        29.86F FOG
NEW RICHMOND   RAIN      57  57 100 E9        29.85F
OSCEOLA        DRIZZLE   58  58 100 E7        29.88F
$$

WIZ003>005-009-010-017-018-250400-
NORTH CENTRAL WISCONSIN

CITY           SKY/WX    TMP DP  RH WIND       PRES   REMARKS
MANITOWISH WTR LGT RAIN  56  56 100 E5        29.98S
ARBOR VITAE    RAIN      57  55  94 E5        29.98S
WOODRUFF       RAIN      57  55  94 E5        29.98S
RHINELANDER    LGT RAIN  56  54  93 E9        29.99S
EAGLE RIVER    LGT RAIN  56  55  98 E6        29.99S
LAND O LAKES   LGT RAIN  57  56  97 E3        30.00F
PHILLIPS       RAIN      56  55  99 E5        29.95S
TOMAHAWK       RAIN      55  54  96 E3        29.97S
MEDFORD        LGT RAIN  55  55  99 E10G17    29.93F
MERRILL        RAIN      56  56 100 E3        29.97S
$$

WIZ029-030-035-036-043>047-250400-
CENTRAL WISCONSIN

CITY           SKY/WX    TMP DP  RH WIND       PRES   REMARKS
WAUSAU         LGT RAIN  56  55  97 E13       29.93F
MOSINEE        LGT RAIN  54  54 100 E8        29.95F
MARSHFIELD     LGT RAIN  56  53  90 E12       29.92F
STEVENS POINT  DRIZZLE   53  53  97 E10       29.95F
WAUPACA        CLOUDY    57  56  98 E7        29.96F
WAUTOMA        LGT RAIN  56  56 100 E9        29.94F
WISC RAPIDS    LGT RAIN  56  53  90 E8        29.92F
CAMP DOUGLAS   DRIZZLE   57  57 100 E9        29.88F
$$

WIZ011>013-019>022-031-037>040-048>050-250400-
NORTHEAST WISCONSIN

CITY           SKY/WX    TMP DP  RH WIND       PRES   REMARKS
ANTIGO         RAIN      55  55  99 SE10      29.97F
SHAWANO        RAIN      57  55  94 E6        29.98F
OCONTO         CLOUDY    54  54 100 NE3       29.99F
STURGEON BAY   CLOUDY    57  52  82 E10       30.03S
GREEN BAY      LGT RAIN  56  55  97 NE9       29.98F FOG
MANITOWOC      LGT RAIN  56  55  97 E12       29.97S
APPLETON       LGT RAIN  55  55 100 E8        29.97F FOG
CLINTONVILLE   DRIZZLE   54  54 100 E5        29.97F
OSHKOSH        CLOUDY    57  55  93 E7        29.94F
$$

WIZ032>034-041-042-053>061-250400-
SOUTHWEST WISCONSIN

CITY           SKY/WX    TMP DP  RH WIND       PRES   REMARKS
LA CROSSE      CLOUDY    61  57  87 SE5       29.84F
SPARTA         LGT RAIN  57  56  94 E6        29.88F
VIROQUA        CLOUDY    57  57 100 E13       29.85F
BOSCOBEL       CLOUDY    60  58  92 NE3       29.84F FOG
PRAIRIE DU CHI CLOUDY    62  59  91 E8        29.81F
PLATTEVILLE    CLOUDY    61  60  97 E13       29.85S
$$

WIZ056-057-062-063-064-067-068-250400-
SOUTH CENTRAL WISCONSIN

CITY           SKY/WX    TMP DP  RH WIND       PRES   REMARKS
REEDSBURG      DRIZZLE   56  55  98 NE5       29.89F
BARABOO/DELLS  RAIN      56  54  93 E8        29.89F
LONE ROCK      LGT RAIN  59  57  93 E10       29.87F FOG
MINERAL POINT  CLOUDY    61  59  94 E12       29.86F FOG
MADISON        CLOUDY    58  56  93 E5        29.89F FOG
MIDDLETON      CLOUDY    59  58  96 E6        29.90S
WATERTOWN      RAIN      57  57 100 E9        29.91F
MONROE         RAIN      59  59 100 E7        29.90R
JANESVILLE     CLOUDY    61  61 100 SE6       29.89F FOG
$$

WIZ051-052-058>065-066-070>072-250400-
SOUTHEAST WISCONSIN

CITY           SKY/WX    TMP DP  RH WIND       PRES   REMARKS
MILWAUKEE      CLOUDY    55  52  89 SE6       29.92F
WAUKESHA       CLOUDY    54  52  94 E7        29.93F
MILWAUKEE/TIMM CLOUDY    55  52  88 CALM      29.94F
RACINE         CLOUDY    56  52  86 SE7       29.93F
BURLINGTON     LGT RAIN  56  55  95 W5        29.93R
KENOSHA        CLOUDY    60  57  89 SE8       29.92F
FOND DU LAC    LGT RAIN  58  55  90 SE9       29.93F FOG
SHEBOYGAN      LGT RAIN  55  54  96 E7        29.96F FOG
WEST BEND      RAIN      54  52  94 E6        29.94F
JUNEAU         LGT RAIN  56  56  97 E9        29.93F
$$

LSZ147-162-250400-
LAKE SUPERIOR

STATION/POSITION TIME  TEMP    WIND        PRES    WAVE
                       AIR SEA DIR/SP/G            HT/PER
                 (UTC) (F)     (DEG/KT/KT) (MB)    (FT/S)
W MID LAKE BUOY  0250   49 37  180/  8/  8   N/A     0
DEVILS ISLAND    0300   57      80/  2/  3   N/A
PORT WING        0200           50/  3/ 22   N/A
SAXON HARBOR     0100   65      CALM  /  7   N/A
$$

LMZ867-665-643>646-250400-
LAKE MICHIGAN

STATION/POSITION TIME  TEMP    WIND        PRES    WAVE
                       AIR SEA DIR/SP/G            HT/PER
                 (UTC) (F)     (DEG/KT/KT) (MB)    (FT/S)
CHAMBERS ISLAND  0200   55     110/  3/  4   N/A
N MID LAKE BUOY  0250   42 36  110/  6/  8   N/A     1/ 3
NORTHPORT PIER   0200   50     130/  4/  5   N/A
SISTER BAY       0217   54        CALM       N/A
KEWAUNEE LAKESHO 0200   50      CALM  /  5   N/A
SHEBOYGAN LAKESH 0300   52     360/  4/  5   N/A
PORT WASHINGTON  0200   54     240/  5/ 12   N/A
ATWATER BUOY     0200   51 46  170/  8/ 14   N/A
MILWAUKEE LAKESH 0200   51     170/  4/  6   N/A
S MID LAKE BUOY  0250   48 38   90/ 12/ 12   N/A     1
KENOSHA   LAKESH 0300   59     150/ 11/ 14   N/A
$$

TC  - TEMPERATURE IN CELSIUS
VSB - VISIBILITY IN STATUTE MILES
WCI - WIND CHILL INDEX
HX  - HEAT INDEX




USA.gov is the U.S. government's official web portal to all federal, state and local government web resources and services.